Tracking 20239 objects as of 23-Jan-2020
HD Live streaming from Space Station
objects crossing your sky now

LEMUR-2 VICTOR-ANDREW

Track LEMUR-2 VICTOR-ANDREW now!
10-day predictions
LEMUR-2 VICTOR-ANDREW is classified as:


NORAD ID: 44087
Int'l Code: 2019-018K
Perigee: 496.4 km
Apogee: 513.4 km
Inclination: 97.4 °
Period: 94.6 minutes
Semi major axis: 6875 km
RCS: Unknown
Launch date: April 1, 2019
Source: United States (US)
Launch site: SRIHARIKOTA (SRI)
aabbcc
Your satellite tracking list
Your tracking list is empty




NASA's NSSDC Master Catalog

Two Line Element Set (TLE):
1 44087U 19018K   20022.64134588  .00001770  00000-0  78897-4 0  9995
2 44087  97.4318  85.3942 0012364 331.8804  28.1763 15.22683063 45070
Source of the keplerian elements: AFSPC